Flag for China Weather past 2 weeks in Guiyang, Guizhou, China

Now
73 °F

Partly sunny.


Feels Like: 74 °F
Forecast: 67 / 82 °F
Wind: 15 mph from Southwest

Location: Guiyang Airport

Current Time: Aug 4, 2015 at 10:04:47 AM

Latest Report: Aug 4, 2015 at 9:00 AM


Visibility: N/A

Pressure: 29.92 "Hg (26.45 "Hg at 1067m altitude)

Humidity: 78%

Dew point: 66 °F

Location of GuiyangLocation

Historic Weather in Guiyang — Graph

°F

Guiyang temperature yesterday

Maximum temperature yesterday: 81 °F (at 2:00 PM)
Minimum temperature yesterday: 66 °F (at 4:00 AM)
Average temperature yesterday: 72 °F

Past Weeks' High & Low Weather Summary

 TemperatureHumidityPressure
High90 °F (Jul 21, 2:00 PM)100% (Jul 21, 4:00 AM)30.04 "Hg (Jul 21, 4:00 AM)
Low61 °F (Jul 27, 4:00 AM)41% (Jul 21, 4:00 PM)29.74 "Hg (Jul 22, 2:00 PM)
Average73 °F83%29.89 "Hg
* Reported Jul 20 9:00 AM — Aug 4 9:00 AM, Guiyang, Weather by CustomWeather, © 2015

Note: Actual official high and low records may vary slightly from our data, if they occured in-between our weather recording intervals... More about our weather records

Advertising

Guiyang weather history for previous 24 hours

 ConditionsComfort  
Time TempWeatherWind HumidityBarometerVisibility
9:00 AM
Tue, Aug 4
73 °FPartly sunny.15 mph78%29.92 "HgN/A
8:00 AM70 °FMostly cloudy.10 mph88%29.89 "HgN/A
7:00 AM68 °FBroken clouds.8 mph94%29.89 "HgN/A
6:00 AM68 °FPartly cloudy.8 mph88%29.89 "HgN/A
5:00 AM68 °FPartly cloudy.6 mph88%29.89 "HgN/A
4:00 AM66 °FPartly cloudy.3 mph94%29.89 "HgN/A
3:00 AM66 °FPassing clouds.6 mph94%29.92 "HgN/A
2:00 AM68 °FPassing clouds.8 mph88%29.92 "HgN/A
12:00 AM68 °FPartly cloudy.8 mph88%29.95 "HgN/A
11:00 PM
Mon, Aug 3
68 °FPartly cloudy.8 mph83%29.95 "HgN/A
10:00 PM68 °FPassing clouds.10 mph83%29.95 "HgN/A
9:00 PM70 °FPassing clouds.13 mph78%29.92 "HgN/A
8:00 PM72 °FPassing clouds.10 mph73%29.89 "HgN/A
7:00 PM73 °FPartly sunny.6 mph74%29.89 "HgN/A
6:00 PM75 °FScattered clouds.10 mph74%29.89 "HgN/A
5:00 PM79 °FScattered clouds.17 mph61%29.89 "HgN/A
4:00 PM81 °FScattered clouds.17 mph58%29.89 "HgN/A
3:00 PM79 °FScattered clouds.13 mph65%29.92 "HgN/A
2:00 PM81 °FScattered clouds.15 mph62%29.92 "HgN/A
1:00 PM77 °FPartly sunny.17 mph69%29.95 "HgN/A
12:00 PM79 °FPartly sunny.17 mph70%29.98 "HgN/A
11:00 AM79 °FPartly sunny.15 mph70%29.98 "HgN/A
10:00 AM73 °FBroken clouds.15 mph78%29.98 "HgN/A
Weather by CustomWeather, © 2015

See weather overviewHow to use our weather pages